Regional Weather Roundup
Issued by NWS

Home | Current Version | Previous Version | Text Only | Print | Product List | Glossary Off
Versions: 1 2 3 4 5 6 7 8 9 10 11 12 13 14 15 16 17 18 19 20 21 22 23 24 25 26 27 28 29 30 31 32 33 34 35 36 37 38 39 40 41 42 43 44 45 46 47 48 49 50

000
ASUS43 KBIS 060410
RWRND

NORTH DAKOTA REGIONAL WEATHER ROUNDUP
NATIONAL WEATHER SERVICE BISMARCK ND
1100 PM CDT SUN JUL 05 2015

NOTE: "FAIR" INDICATES FEW OR NO CLOUDS BELOW 12,000 FEET WITH NO
SIGNIFICANT WEATHER AND/OR OBSTRUCTIONS TO VISIBILITY.


NDZ001>003-009>011-017-060500-
NORTHWEST NORTH DAKOTA

CITY           SKY/WX    TMP DP  RH WIND       PRES   REMARKS
WILLISTON      CLOUDY    65  52  62 N7        30.06R
MINOT          CLOUDY    62  53  72 NW10      29.99R
MINOT AFB      CLOUDY    63  61  94 NW9       29.99R
$$

NDZ018>021-031>035-040>046-060500-
SOUTHWEST NORTH DAKOTA

CITY           SKY/WX    TMP DP  RH WIND       PRES   REMARKS
BISMARCK       CLOUDY    69  60  73 NW5       29.98R HAZE
DICKINSON      CLOUDY    61  51  70 N7        30.04R
GARRISON         N/A     60  56  86 N6        30.00R
HETTINGER ARPT CLOUDY    61  57  87 NW6       30.06R FOG
$$

NDZ004>008-012>016-024-026-027-054-060500-
NORTHEAST NORTH DAKOTA

CITY           SKY/WX    TMP DP  RH WIND       PRES   REMARKS
GRAND FORKS    CLOUDY    63  60  90 NW5       29.88R FOG
GRND FRKS AFB  MOCLDY    65  61  86 NW3       29.89R HAZE
DEVILS LAKE    CLOUDY    64  54  68 N9        29.92R
$$

NDZ022-023-025-028>030-036>039-047>053-060500-
SOUTHEAST NORTH DAKOTA

CITY           SKY/WX    TMP DP  RH WIND       PRES   REMARKS
FARGO          MOCLDY    72  65  78 N9        29.87R
JAMESTOWN      CLOUDY    68  63  84 N10       29.92R HAZE
$$



USA.gov is the U.S. government's official web portal to all federal, state and local government web resources and services.